Wind_Speed
9 9 9 8 8 8 8 9 9 10 9 10 10 10 10 10 11 12 13 13 14 14 15 16 17 18 18 19 19 20 20 21 21 21 21 22 22 23
9 9 9 9 8 9 9 9 9 9 9 9 10 10 11 11 12 12 13 14 14 15 16 17 18 18 19 19 20 20 21 21 21 22 23 23 24 24
9 9 8 9 9 9 9 10 10 10 10 10 10 11 12 12 13 14 14 15 15 16 17 18 19 19 19 20 21 22 22 22 23 23 24 24 25 25
9 9 9 9 9 9 10 10 10 11 11 11 11 12 13 13 14 15 15 15 16 17 18 19 19 19 20 21 22 23 23 23 23 24 25 25 26 27
10 10 9 10 10 10 10 10 11 11 12 12 12 13 13 14 15 15 16 17 18 18 19 19 20 21 21 22 23 23 23 24 24 25 26 27 27 28
11 11 11 11 11 11 11 11 11 12 12 13 13 14 14 15 15 16 17 17 18 19 20 21 21 22 23 23 23 23 24 25 26 26 27 28 29 29
12 12 12 12 12 12 13 13 13 13 13 13 14 15 15 16 16 17 18 19 20 21 22 22 23 24 24 24 25 25 26 26 27 27 28 28 28 29
12 13 13 14 14 14 13 13 14 14 14 15 15 16 16 17 18 19 20 21 21 22 24 24 24 24 25 25 26 27 27 28 28 28 29 28 28 28
14 14 15 15 15 15 15 14 14 15 16 16 17 17 18 18 19 21 21 22 23 24 24 24 25 26 26 25 26 27 27 27 28 28 28 28 28 29
15 16 16 16 15 15 16 15 16 16 17 18 19 19 20 20 21 22 23 24 25 26 26 26 26 27 26 26 27 28 29 29 29 29 29 29 29 29
17 17 17 17 17 17 17 17 18 18 19 19 19 20 21 22 23 24 24 25 26 27 27 28 28 27 27 28 29 30 30 31 31 30 30 30 30 30
18 17 17 18 18 18 19 19 19 20 20 20 21 22 22 24 24 25 26 27 28 28 28 29 29 29 29 29 30 31 31 31 31 31 30 30 30 30
19 19 19 19 20 20 21 21 21 21 21 22 23 23 24 25 26 27 28 29 29 29 29 30 30 30 30 31 31 31 32 32 32 31 31 31 31 30
21 21 21 21 21 22 22 22 23 23 23 24 25 26 26 27 28 29 29 30 31 31 31 31 32 32 32 32 32 32 33 33 32 32 32 32 32 32
22 23 23 23 23 24 24 24 24 25 25 26 27 28 28 29 30 30 31 31 32 32 33 32 32 33 33 33 34 34 33 33 33 33 33 33 33 33
24 24 25 25 25 25 26 26 27 28 28 28 29 30 30 30 31 32 32 32 33 33 33 33 33 34 34 35 35 35 35 34 34 34 34 34 34 34
26 26 26 27 27 27 28 29 29 29 30 31 31 32 32 32 33 33 33 33 33 33 33 34 35 35 35 36 36 36 36 35 35 34 35 35 35 35
28 28 28 29 29 29 30 31 31 32 32 33 33 33 33 34 34 34 35 35 35 35 35 35 36 36 36 36 37 37 36 36 36 36 35 35 35 35
30 31 31 31 31 32 32 32 33 34 34 35 35 35 35 35 35 35 35 36 36 36 36 37 37 38 38 37 36 37 37 36 36 36 36 35 35 35
32 32 32 33 33 34 34 34 35 36 36 37 37 36 36 36 36 36 37 37 37 38 38 38 38 39 39 38 37 37 38 37 37 36 36 36 35 35
33 34 34 34 35 35 35 36 37 37 37 38 37 37 38 38 38 38 38 39 39 39 39 39 39 40 40 39 39 38 38 38 37 37 36 36 35 35
35 35 35 36 36 37 38 39 39 39 39 38 38 38 38 39 38 39 39 39 40 40 40 40 40 41 40 40 39 38 37 37 37 37 37 36 35 34
37 37 37 38 39 39 40 41 41 40 40 39 39 39 39 39 39 39 39 39 40 40 40 40 40 40 40 39 39 38 38 37 36 35 35 35 34 34
Wind_Direction
295 298 296 299 301 302 300 295 292 294 295 295 294 292 292 295 294 289 291 294 295 293 292 292 292 293 292 292 292 291 291 293 293 291 290 291 290 290
298 299 297 297 299 299 298 299 300 296 292 294 297 294 291 296 298 296 293 295 296 295 296 295 295 296 294 293 293 293 294 294 294 292 291 291 291 291
303 299 297 300 298 299 298 299 301 302 294 291 296 299 296 295 297 299 298 298 298 299 299 298 298 296 295 295 295 294 294 294 294 294 293 292 291 291
308 303 301 298 298 297 298 300 300 302 300 296 296 297 297 297 299 300 302 303 303 303 302 299 299 299 297 296 296 296 296 295 295 295 294 293 292 292
309 307 301 297 294 297 299 299 300 300 300 300 298 297 295 297 300 301 301 303 303 303 305 305 303 303 302 301 300 299 298 298 298 297 296 295 294 294
304 304 304 301 296 296 297 296 298 301 301 299 298 297 296 298 300 302 303 303 305 305 306 306 305 304 302 302 302 301 301 301 300 300 299 297 296 296
300 300 302 301 297 294 294 294 295 297 300 301 300 299 300 300 301 302 303 303 304 305 305 305 304 302 301 303 303 303 302 302 301 300 299 299 298 297
297 299 300 299 298 296 296 294 293 296 297 299 300 300 300 300 301 301 303 303 303 304 305 305 305 304 304 304 303 303 303 303 303 302 301 300 299 299
293 295 297 297 295 295 295 296 297 297 297 298 298 298 299 300 301 302 302 303 303 305 305 306 307 307 305 304 305 306 306 305 304 303 301 299 299 299
291 292 292 293 293 294 294 294 296 297 297 299 299 298 297 298 300 301 303 304 305 305 306 305 305 305 303 304 305 305 306 306 304 303 301 300 299 299
289 291 291 291 291 292 293 293 293 294 295 297 299 301 302 302 303 303 303 305 305 305 304 305 306 305 305 304 303 303 304 305 304 301 300 300 299 300
288 289 290 289 291 292 293 293 293 293 293 293 295 297 299 301 303 303 303 303 304 304 305 305 305 305 305 305 305 304 304 304 304 302 301 299 299 300
285 286 287 288 290 291 293 294 293 293 294 294 294 296 297 299 300 301 302 303 304 304 304 304 304 305 306 306 306 305 304 304 303 303 302 300 299 300
285 286 288 289 290 291 293 294 294 294 295 296 296 296 297 298 299 300 301 302 303 304 304 303 303 304 304 305 305 305 305 304 303 302 301 300 299 299
284 285 286 288 289 290 291 293 294 296 296 297 298 298 298 299 300 300 300 302 302 302 303 302 302 302 303 304 304 304 303 302 301 300 300 299 299 299
283 283 284 286 288 289 290 291 291 293 295 296 297 298 298 299 299 300 301 301 302 302 302 302 302 302 302 303 304 303 302 300 300 299 299 299 299 298
281 282 283 285 287 288 290 291 292 293 294 295 295 296 297 298 298 299 300 300 301 301 300 300 301 302 303 304 304 303 302 301 300 300 300 299 299 298
281 282 283 284 286 287 289 290 291 291 292 294 295 295 296 297 297 298 298 299 299 300 299 300 300 301 302 303 304 303 302 301 300 300 299 299 298 298
281 282 283 284 285 287 288 289 290 291 292 293 294 295 295 296 296 297 297 298 299 299 298 298 299 300 301 301 301 301 301 301 300 300 299 299 298 297
281 282 282 283 284 286 288 289 290 291 291 292 293 293 294 295 295 296 296 297 298 298 298 298 298 299 300 300 300 300 300 299 299 300 299 299 299 299
281 281 282 283 284 285 287 289 290 291 291 291 292 292 292 293 294 295 296 296 296 296 297 297 297 297 298 299 299 299 299 298 298 299 300 300 300 299
280 281 282 284 285 285 286 288 290 291 291 291 291 292 292 292 293 294 294 295 296 296 296 296 297 297 297 298 298 298 298 297 297 298 299 301 301 300
279 281 282 283 285 286 287 288 289 290 290 290 290 291 292 293 292 293 294 295 296 296 296 296 296 296 296 297 298 298 298 297 297 297 299 300 301 301
Height
5826 5826 5825 5825 5824 5824 5823 5823 5824 5823 5823 5823 5823 5823 5822 5821 5821 5820 5820 5819 5818 5817 5815 5814 5813 5812 5810 5809 5808 5807 5806 5805 5803 5802 5801 5799 5798 5797
5824 5824 5823 5823 5822 5822 5822 5821 5821 5821 5821 5821 5820 5820 5819 5819 5818 5817 5816 5815 5814 5813 5811 5810 5808 5807 5805 5804 5802 5801 5800 5799 5797 5796 5795 5793 5792 5790
5823 5822 5821 5821 5820 5820 5819 5819 5819 5818 5818 5818 5817 5817 5816 5816 5815 5814 5813 5812 5810 5809 5807 5805 5803 5801 5800 5798 5797 5795 5794 5792 5791 5789 5788 5786 5785 5783
5821 5820 5820 5819 5818 5818 5817 5816 5816 5816 5815 5815 5815 5814 5813 5812 5812 5811 5809 5808 5806 5805 5803 5801 5799 5797 5795 5793 5791 5789 5787 5786 5784 5783 5781 5779 5777 5775
5819 5818 5817 5817 5816 5815 5815 5814 5814 5813 5813 5812 5811 5811 5810 5809 5808 5807 5806 5804 5802 5800 5798 5796 5794 5791 5789 5787 5785 5783 5781 5779 5777 5775 5773 5771 5769 5766
5817 5816 5815 5814 5814 5813 5812 5812 5811 5810 5809 5809 5808 5807 5806 5805 5804 5803 5801 5800 5798 5796 5794 5791 5789 5786 5784 5781 5779 5776 5774 5772 5770 5767 5765 5763 5760 5757
5814 5813 5812 5812 5811 5810 5810 5809 5808 5807 5806 5806 5805 5804 5803 5801 5800 5799 5797 5795 5793 5791 5789 5786 5784 5781 5778 5775 5772 5770 5767 5764 5762 5759 5757 5754 5751 5748
5811 5810 5809 5808 5808 5807 5806 5805 5805 5804 5803 5802 5801 5800 5799 5797 5796 5794 5792 5790 5788 5787 5783 5781 5778 5775 5772 5769 5766 5763 5760 5757 5754 5751 5748 5745 5742 5740
5808 5807 5806 5805 5804 5803 5802 5802 5801 5800 5799 5798 5797 5796 5794 5793 5791 5789 5787 5785 5783 5780 5777 5775 5772 5769 5765 5762 5759 5755 5752 5749 5746 5742 5739 5736 5734 5731
5804 5803 5802 5801 5800 5799 5798 5798 5797 5796 5795 5793 5792 5790 5789 5787 5785 5783 5781 5779 5776 5774 5771 5768 5765 5762 5758 5755 5751 5748 5745 5741 5738 5734 5731 5728 5725 5722
5799 5798 5797 5797 5796 5795 5794 5793 5792 5791 5789 5788 5786 5785 5783 5781 5779 5777 5775 5772 5770 5767 5764 5761 5758 5754 5751 5748 5744 5740 5736 5733 5729 5726 5722 5719 5716 5713
5794 5794 5793 5792 5791 5790 5789 5788 5787 5785 5784 5782 5781 5779 5777 5775 5773 5770 5768 5765 5762 5760 5756 5753 5750 5746 5744 5740 5736 5732 5728 5724 5721 5717 5714 5711 5708 5705
5789 5789 5788 5787 5786 5785 5783 5782 5781 5779 5778 5776 5775 5773 5771 5768 5766 5763 5760 5758 5754 5751 5748 5745 5741 5738 5735 5732 5728 5724 5720 5716 5712 5709 5705 5702 5699 5696
5784 5783 5782 5781 5780 5779 5777 5776 5774 5773 5771 5770 5768 5766 5763 5761 5759 5756 5752 5749 5746 5743 5739 5736 5733 5729 5726 5723 5719 5715 5711 5707 5703 5700 5696 5693 5690 5687
5777 5777 5776 5775 5773 5772 5771 5769 5768 5766 5764 5762 5760 5758 5756 5753 5750 5747 5744 5741 5737 5734 5730 5727 5723 5720 5716 5713 5710 5706 5702 5698 5694 5691 5687 5684 5680 5677
5770 5770 5769 5768 5766 5765 5763 5762 5760 5759 5757 5755 5752 5750 5747 5744 5742 5738 5735 5732 5729 5725 5721 5717 5714 5710 5707 5703 5699 5695 5692 5688 5685 5681 5677 5674 5670 5667
5763 5762 5761 5760 5759 5757 5756 5754 5752 5750 5748 5746 5743 5741 5738 5735 5732 5729 5726 5723 5719 5716 5712 5708 5704 5701 5697 5693 5689 5685 5681 5677 5674 5670 5667 5663 5659 5656
5754 5754 5753 5752 5750 5749 5747 5745 5743 5741 5739 5737 5734 5731 5728 5725 5722 5719 5716 5712 5709 5706 5702 5698 5694 5691 5687 5682 5678 5674 5670 5667 5663 5659 5656 5652 5649 5645
5745 5745 5744 5742 5741 5739 5738 5736 5734 5731 5729 5726 5724 5721 5718 5715 5712 5709 5705 5702 5698 5695 5691 5687 5684 5680 5676 5673 5668 5663 5659 5656 5652 5648 5645 5641 5638 5634
5735 5735 5733 5732 5731 5729 5727 5725 5723 5720 5718 5716 5713 5710 5707 5704 5701 5698 5694 5691 5687 5684 5680 5676 5672 5668 5665 5661 5658 5654 5648 5645 5641 5637 5634 5630 5626 5622
5725 5724 5723 5721 5720 5718 5716 5714 5712 5709 5707 5704 5701 5699 5696 5693 5689 5686 5683 5679 5676 5672 5669 5665 5660 5656 5652 5649 5646 5643 5638 5633 5629 5626 5622 5619 5615 5611
5714 5713 5711 5710 5708 5706 5704 5702 5700 5698 5695 5692 5690 5687 5684 5680 5677 5674 5671 5667 5663 5660 5656 5653 5648 5645 5641 5637 5634 5631 5627 5623 5619 5614 5610 5607 5603 5600
5702 5701 5699 5698 5696 5694 5692 5690 5688 5685 5682 5680 5677 5674 5671 5668 5665 5661 5658 5654 5651 5647 5643 5640 5636 5632 5629 5625 5622 5618 5615 5611 5608 5604 5601 5596 5592 5589